www.pogodaiklimat.ru

Погода и климат >> Архив погоды >> Индонезия >> Горонтало


ПОГОДА в Горонтало

  • Прогноз погоды в Горонтало
  • Монитор погоды в Горонтало

АРХИВ ПОГОДЫ в Горонтало

Время (UTC), дата Ветер
(напр.,м/с)
 
Видим.   Явления Облачность Т
(С)
Тd
(С)
f
(%)
Тe
(С)
Тes
(С)
Комфортность P
(гПа)
Po
(гПа)
Тmin
(С)
Tmax
(С)
R
(мм)
R24
(мм)
S
(см)
06 17.07 ЮВ 7 10 км 6/5 540 м
[Cu med, cong Ac trans Ci fib]
+29.9 +23.2 67 +40 +42 очень
душно
1005.5 1003.3
09 17.07 Ю 5 10 км 6/4 540 м
[Cu med, cong Ac trans Ci fib]
+28.8 +23.7 74 +39 +40 очень
душно
1005.7 1003.4
12 17.07 ЮВ 4 10 км 8/5 500 м
[Cu med, cong Ac trans Ci fib]
+27.3 +24.5 85 +39 +39 очень
душно
1007.6 1005.3 +31.4
15 17.07 ЮВ 2 10 км 8/5 500 м
[Cu med, cong Ac trans Ci fib]
+27.3 +24.5 85 +39 +39 очень
душно
1008.6 1006.2
18 17.07 СВ 2 10 км 9/5 500 м
[Cu med, cong Ac trans Ci fib]
+25.9 +24.9 94 +37 +37 очень
душно
1007.6 1005.3
21 17.07 штиль 0 8000 м в посл. час дождь 9/5 500 м
[Cu med, cong Ac trans Ci fib]
+24.9 +24.5 98 +35 +35 очень
душно
1007.5 1005.1 0.2
00 18.07 штиль 0 10 км 9/4 500 м
[Cu med, cong Ac As Ci fib]
+26.8 +25.0 90 +39 +41 очень
душно
1008.9 1006.8 +24.1 0.2
06 18.07 Ю 5 10 км 9/4 540 м
[Cu med, cong Ac As Ci fib]
+28.6 +24.5 79 +41 +43 опасность
перегрева
1006.9 1004.7
09 18.07 штиль 0 6000 м слаб. дождь 10/8 450 м
[Cb cap As op]
+26.0 +23.9 88 +36 +36 очень
душно
1006.8 1004.6 1
12 18.07 штиль 0 6000 м в посл. час дождь 8/6 420 м
[Cb cap As op Ci fib]
+24.8 +24.1 96 +34 +34 очень
душно
1008.5 1006.3 +30.2 12
15 18.07 ЮВ 1 7000 м 9/5 450 м
[Sc Ac As Ci fib]
+25.0 +24.6 98 +35 +35 очень
душно
1009.0 1006.8
18 18.07 штиль 0 8000 м 6/5 450 м
[Sc Ac As Ci fib]
+23.9 +23.1 95 +32 +32 очень
душно
1008.0 1005.8
21 18.07 штиль 0 8000 м 8/4 450 м
[Sc Ac As Ci fib]
+23.3 +22.9 98 +33 +33 очень
душно
1007.9 1005.7
00 19.07 ЮВ 2 10 км 5/4 450 м
[Cu med, cong Ac trans Ci fib]
+25.6 +23.9 90 +35 +38 очень
душно
1009.0 1006.9 +22.8 13
03 19.07 ЮВ 4 10 км 5/4 540 м
[Cu med, cong Ac trans Ci fib]
+30.3 +24.4 71 +43 +49 опасность
перегрева
1008.1 1005.9
06 19.07 Ю 4 10 км 6/4 540 м
[Cu med, cong Ac trans Ci fib]
+31.1 +24.8 69 +44 +49 опасность
перегрева
1006.2 1004.1
09 19.07 Ю 4 10 км 6/4 540 м
[Cu med, cong Ac trans Ci fib]
+29.2 +24.6 76 +41 +42 опасность
перегрева
1006.5 1004.4
12 19.07 штиль 0 10 км 4/3 540 м
[Cu med, cong Ac trans Ci fib]
+26.4 +25.0 92 +38 +38 очень
душно
1008.3 1006.1 +32.2
15 19.07 штиль 0 10 км 4/3 540 м
[Cu med, cong Ac trans Ci fib]
+25.1 +24.6 97 +35 +35 очень
душно
1009.6 1007.4
18 19.07 штиль 0 10 км 4/3 540 м
[Cu med, cong Ac trans Ci fib]
+25.1 +24.6 97 +35 +35 очень
душно
1008.4 1006.2
21 19.07 штиль 0 10 км 4/3 540 м
[Cu med, cong Ac trans Ci fib]
+24.4 +24.2 99 +34 +34 очень
душно
1008.2 1006.1
00 20.07 ЮВ 1 6000 м туман на расстоянии 5/5 300 м
[Cu Sc Ac trans Ci fib]
+25.7 +24.2 91 +36 +39 очень
душно
1009.9 1007.8 +23.3
03 20.07 ЮВ 2 10 км 5/4 540 м
[Cu hum Ac trans Ci fib]
+30.2 +25.1 74 +44 +55 опасность
перегрева
1008.8 1006.5
06 20.07 Ю 4 10 км 5/4 540 м
[Cu med, cong Ac trans Ci fib]
+31.2 +23.5 64 +42 +47 опасность
перегрева
1007.1 1005.0
09 20.07 В 4 10 км {дождь} 9/5 540 м
[Cb cap Ac trans Ci fib]
+28.2 +24.6 81 +40 +40 очень
душно
1006.8 1004.7 0.0
12 20.07 В 1 9000 м 9/5 540 м
[Cu med, cong Ac As Ci fib]
+27.4 +24.8 86 +39 +39 очень
душно
1008.3 1006.1 +31.8 0.0
15 20.07 ЮВ 3 9000 м 9/5 540 м
[Cu med, cong Ac As Ci fib]
+26.1 +24.3 90 +36 +36 очень
душно
1009.5 1007.4
18 20.07 З 2 9000 м 9/5 540 м
[Cu med, cong Ac As Ci fib]
+24.3 +23.0 92 +32 +32 очень
душно
1008.1 1006.0
21 20.07 штиль 0 9000 м 9/5 540 м
[Cu med, cong Ac As Ci fib]
+23.3 +22.3 94 +32 +32 очень
душно
1007.9 1005.8
00 21.07 В 3 10 км 6/4 540 м
[Cu med, cong Ac trans Ci fib]
+27.5 +23.4 78 +37 +40 очень
душно
1009.0 1006.6 +22.8
03 21.07 ЮВ 5 10 км 6/4 540 м
[Cu med, cong Ac trans Ci fib]
+31.1 +23.4 64 +42 +47 опасность
перегрева
1008.1 1005.8
06 21.07 Ю 5 10 км 6/4 540 м
[Cu med, cong Ac trans Ci fib]
+31.6 +23.5 62 +42 +46 опасность
перегрева
1006.0 1003.7
09 21.07 Ю 3 10 км 3/3 570 м
[Cu med, cong Ac trans Ci fib]
+29.4 +22.0 64 +38 +38 очень
душно
1005.9 1003.8
12 21.07 З 2 10 км 3/1 540 м
[Sc Ac trans Ci fib]
+26.0 +22.7 82 +34 +34 очень
душно
1007.8 1005.6 +32.2
15 21.07 штиль 0 9000 м 3/3 540 м
[Sc Ac trans Ci fib]
+23.9 +22.2 90 +31 +31 очень
душно
1009.0 1006.8
18 21.07 штиль 0 8000 м 3/3 540 м
[Sc Ac trans Ci fib]
+22.5 +21.5 94 +30 +30 очень
душно
1007.7 1005.5
21 21.07 штиль 0 5000 м дымка 4/1 540 м
[Sc Ac trans Ci fib]
+22.2 +21.5 96 +29 +29 очень
душно
1007.8 1005.6
00 22.07 ЮВ 2 10 км 4/3 540 м
[Cu med, cong Ac trans Ci fib]
+25.8 +23.1 85 +34 +38 очень
душно
1009.0 1006.8 +21.6
03 22.07 ЮВ 3 10 км 4/3 540 м
[Cu med, cong Ac trans Ci fib]
+30.7 +22.3 61 +40 +51 опасность
солнечного
удара
1008.1 1005.9
06 22.07 Ю 4 10 км 4/3 540 м
[Cu med, cong Ac trans Ci fib]
+31.8 +21.8 55 +40 +46 очень
душно
1005.9 1003.8
09 22.07 Ю 3 10 км 3/1 600 м
[Sc Ci fib]
+29.9 +21.6 61 +38 +39 очень
душно
1005.9 1003.5
12 22.07 штиль 0 10 км 3/1 600 м
[Sc Ci fib]
+25.9 +22.3 81 +34 +34 очень
душно
1007.4 1005.0 +32.0
15 22.07 штиль 0 10 км 3/1 600 м
[Sc Ci fib]
+24.0 +23.0 94 +32 +32 очень
душно
1008.7 1006.3
18 22.07 штиль 0 10 км 3/1 600 м
[Sc Ci fib]
+23.8 +23.1 96 +32 +32 очень
душно
1008.3 1005.9
21 22.07 штиль 0 10 км 3/1 600 м
[Sc Ci fib]
+23.5 +23.1 98 +31 +31 очень
душно
1007.8 1005.4
00 23.07 ЮВ 2 10 км 5/3 480 м
[Cu med, cong Ac trans Ci fib]
+26.2 +22.1 78 +34 +38 очень
душно
1008.7 1006.7 +22.8
06 23.07 Ю 5 10 км 8/4 480 м
[Cu med, cong Ac As Ci fib]
+30.9 +21.7 58 +39 +42 очень
душно
1006.3 1004.1
09 23.07 ЮВ 5 10 км 9/4 480 м
[Cu med, cong Ac trans Ci fib]
+27.8 +23.1 76 +37 +38 очень
душно
1006.8 1004.6
12 23.07 ЮВ 5 10 км 9/4 540 м
[Cu med, cong Ac trans Ci fib]
+26.8 +22.6 78 +35 +35 очень
душно
1009.1 1007.0 +32.0
15 23.07 ЮВ 3 10 км 9/4 600 м
[Cu med, cong Ac trans Ci fib]
+26.3 +22.2 78 +34 +34 очень
душно
1009.7 1007.6
18 23.07 ЮВ 2 10 км 9/5 600 м
[Cu med, cong Ac trans Ci fib]
+25.6 -25.0 2 +22 +22 комфорт 1008.4 1006.2
21 23.07 Ю 2 10 км 9/4 600 м
[Cu med, cong Ac trans Ci fib]
+25.0 +24.0 94 +34 +34 очень
душно
1008.6 1006.7
00 24.07 ЮВ 3 10 км 8/5 540 м
[Cu med, cong Ac As Ci fib]
+28.0 +22.7 73 +37 +39 очень
душно
1010.8 1008.7 +24.1
03 24.07 Ю 5 10 км 8/5 540 м
[Cu med, cong Ac As Ci fib]
+30.3 +21.7 60 +39 +42 очень
душно
1010.6 1008.3

 

Местоположение метеостанции Горонтало (Индонезия): широта 0.52 долгота 123.06 высота над уровнем моря 2 м.

В архиве по умолчанию представлена погода в Горонтало за последнюю неделю. Архивные данные за месяц целиком и за предыдущие месяцы, начиная с января 2011 года, Вы можете получить, выбрав интересующий диапазон дат из раскрывающегося списка и нажав кнопку "Ввод!".


*Определитесь, кто Вы:
робот инопланетянин человек

Внимание! Время в таблицах - всемирное. Для получения местного времени необходимо прибавить поправку, которая равна 8 ч.

Смотрите также архив погоды в соседних городах и на ближайших метеорологических станциях:

Погода в Лувуке (Индонезия) (161 км)
Погода в Менадо (Индонезия) (234 км)
Погода в Битунге (Индонезия) (257 км)
Погода в Толи-Толи (Индонезия) (257 км)
Погода в Посо (Индонезия) (334 км)
Погода в Палу (Индонезия) (394 км)
Погода на Санане (Индонезия) (436 км)
Погода в Масамбе (Индонезия) (455 км)
Погода в Тернате (Индонезия) (479 км)
Погода в Лабухе (Индонезия) (510 км)

Пояснения к столбцам:

Ветер - указаны скорость ветра в м/с - средняя за 10 мин, порывы в срок и между сроками (в фигурных скобках) и направление, откуда дует ветер: С - северный, СВ - северо-восточный, В - восточный, ЮВ - юго-восточный, Ю - южный, ЮЗ - юго-западный, З - западный, СЗ - северо-западный.
Видимость - горизонтальная дальность видимости в метрах или километрах. При видимости от 1 до 10 км при отсутствии осадков обычно наблюдается дымка, при ухудшении видимости до 1 км и менее - туман. В сухую погоду видимость может ухудшаться дымом, пылью или мглою.
Явления - указаны атмосферные явления, наблюдавшиеся в срок или в последний час перед сроком; фигурными скобками обозначены явления, наблюдавшиеся между сроками (за 1-3 часа до срока); квадратными скобками обозначены град или гололедные отложения с указанием их диаметра в мм.
Облачность - указаны через наклонную черту общая и нижняя облачность в баллах и высота нижней границы облаков в метрах; квадратными скобками обозначены формы облаков: Ci - перистые, Cs - перисто-слоистые, Cc - перисто-кучевые, Ac - высококучевые, As - высокослоистые, Sc - слоисто-кучевые, Ns - слоисто-дождевые, Cu - кучевые, Cb - кучево-дождевые. Подробнее классификацию облаков см. в Атласе облаков (PDF).
T - Температура воздуха - температура, измеренная на высоте 2 м над землей.
Td - Температура точки росы - температура, при понижении до которой содержащийся в воздухе водяной пар достигнет насыщения.
f - Относительная влажность воздуха - влажноcть воздуха, измеренная на высоте 2 м над землей.
Te - Эффективная температура - температура, которую ощущает одетый по сезону человек в тени. Характеристика душности погоды. При расчете учитывается влияние влажности воздуха и скорости ветра на теплоощущения человека.
Tes - Эффективная температура на солнце - температура, которую ощущает человек, с поправкой на солнечный нагрев. Характеристика знойности погоды. Зависит от высоты солнца над горизонтом, облачности и скорости ветра. Ночью, в пасмурную погоду, а также при ветре 12 м/с и более поправка равна нулю.
P - Атмосферное давление - приведенное к уровню моря атмосферное давление.
Po - Атмосферное давление - измеренное на уровне метеостанции атмосферное давление.
Tmin - Минимальная температура - минимум температуры воздуха на высоте 2 м над землей.
Tmax - Максимальная температура - максимум температуры воздуха на высоте 2 м над землей.
R - Количество осадков - Количество выпавших осадков за период времени, мм. При наведении курсора мыши на число - период времени, за который выпало указанное количество осадков.
R24 - Количество осадков - Количество выпавших осадков за 24 часа, мм.
S - Снежный покров - Высота снежного покрова, см. При наведении курсора мыши на число - состояние снежного покрова и степень покрытия местности в баллах.